sat.trackr.live / text

‹ back to catalog

STARLINK-36632

NORAD 67581 · 2026-016W

PAYLOAD ACTIVE UNKNOWN

§ Identity

Operator
Country
US
Launch date
2026-01-25
Launch site
AFWTR
Launch vehicle
Mass (kg)
RCS (m²)

Purposes: comms

External: N2YO · Heavens-Above · Gunter

§ Orbital elements

Epoch: 2026-09-19T09:50:38.997312Z

Period
93.91 min
Inclination
97.2860°
Eccentricity
0.0001545
Mean motion
15.33451260 rev/d
Perigee alt
464.5 km
Apogee alt
466.6 km
Semi-major
6,843.7 km
B*
3.4702e-4
RAAN
321.0924°
Arg perigee
91.8655°
Mean anomaly
268.2765°
Rev number
3,655

§ Raw data

STARLINK-366321 67581U 26016W   26262.41017358  .00011147  00000+0  34702-3 0  99912 67581  97.2860 321.0924 0001545  91.8655 268.2765 15.33451260 36556

JSON: /api/v1/satellites/67581 · /tle

For live sub-satellite position, see the globe view (requires WebGL).

§ Visibility from observer

Set your observer location to see the next 7 days of passes ≥ 10°. The values pass through the URL so the page stays shareable.

No JS? Fill the form by hand. The geolocation button needs JavaScript.